Flag for U.S.A. Weather past 2 weeks in Aliso Viejo, California, U.S.A.

Now
67 °F

Clear.


Feels Like: 67 °F
Forecast: 61 / 83 °F
Wind: No wind

Location: John Wayne Airport-Orange County Airport

Current Time: Sep 30, 2014 at 5:18:55 AM

Latest Report: Sep 30, 2014 at 4:53 AM


Visibility: 10 mi

Pressure: 29.84 "Hg

Humidity: 68%

Dew point: 56 °F

Location of Aliso ViejoLocation

Historic Weather in Aliso Viejo — Graph

°F

Aliso Viejo temperature yesterday

Maximum temperature yesterday: 80 °F (at 2:53 PM)
Minimum temperature yesterday: 65 °F (at 6:53 AM)
Average temperature yesterday: 72 °F

Past Weeks' High & Low Weather Summary

 TemperatureHumidityPressure
High99 °F (Sep 16, 4:53 PM)88% (Sep 23, 6:00 AM)29.99 "Hg (Sep 23, 6:00 AM)
Low65 °F (Sep 29, 6:53 AM)24% (Sep 16, 3:53 PM)29.67 "Hg (Sep 16, 5:53 PM)
Average77 °F60%29.86 "Hg
* Reported Sep 15 3:53 AM — Sep 30 3:53 AM, Aliso Viejo, Weather by CustomWeather, © 2014

Note: Actual official high and low records may vary slightly from our data, if they occured in-between our weather recording intervals... More about our weather records

Advertising

Aliso Viejo weather history for previous 24 hours

 ConditionsComfort  
Time TempWeatherWind HumidityBarometerVisibility
3:53 AM
Sep 30
67 °FClear.No wind68%29.85 "Hg10 mi
2:53 AM68 °FClear.No wind68%29.85 "Hg10 mi
1:53 AM69 °FClear.No wind68%29.86 "Hg10 mi
12:53 AM69 °FClear.No wind66%29.86 "Hg10 mi
11:53 PM
Sep 29
70 °FClear.No wind68%29.87 "Hg10 mi
10:53 PM70 °FPassing clouds.No wind68%29.87 "Hg10 mi
9:53 PM71 °FPassing clouds.No wind66%29.87 "Hg10 mi
8:53 PM72 °FPassing clouds.3 mph64%29.86 "Hg10 mi
7:53 PM73 °FPassing clouds.No wind59%29.85 "Hg10 mi
6:53 PM74 °FSunny.7 mph57%29.84 "Hg10 mi
5:53 PM76 °FSunny.9 mph56%29.84 "Hg10 mi
4:53 PM80 °FSunny.7 mph47%29.83 "Hg10 mi
3:53 PM80 °FPassing clouds.7 mph47%29.85 "Hg10 mi
2:53 PM80 °FPassing clouds.7 mph45%29.86 "Hg10 mi
1:53 PM79 °FSunny.8 mph48%29.88 "Hg10 mi
12:53 PM77 °FSunny.8 mph52%29.90 "Hg10 mi
11:53 AM77 °FPassing clouds.7 mph50%29.92 "Hg10 mi
10:53 AM76 °FPassing clouds.5 mph56%29.92 "Hg10 mi
9:53 AM73 °FScattered clouds.No wind57%29.94 "Hg10 mi
8:53 AM71 °FPassing clouds.No wind63%29.93 "Hg10 mi
7:53 AM68 °FPassing clouds.No wind65%29.92 "Hg10 mi
6:53 AM65 °FClear.No wind73%29.91 "Hg10 mi
5:53 AM67 °FClear.No wind68%29.90 "Hg10 mi
Weather by CustomWeather, © 2014

See weather overviewHow to use our weather pages